BIKF

Keflavik International Airport

Reykjavík, Iceland
Issued Wind Visibility Ceiling Temperature Dew Point Humidity Barometer
Aug-20
09:30 UTC
030°
12 KTS
10,000+ meters   10° C
50° F
C
37° F
62% 30.06" Hg
1018 hPa
VFR
Aug-20
09:00 UTC
030°
12 KTS
10,000+ meters   10° C
50° F
C
37° F
62% 30.06" Hg
1018 hPa
VFR
Aug-20
08:30 UTC
030°
11 KTS
10,000+ meters   C
48° F
C
37° F
66% 30.06" Hg
1018 hPa
VFR
Aug-20
08:00 UTC
030°
9 KTS
10,000+ meters   C
48° F
C
39° F
71% 30.06" Hg
1018 hPa
VFR
Aug-20
07:30 UTC
040°
8 KTS
10,000+ meters   C
46° F
C
39° F
76% 30.06" Hg
1018 hPa
VFR
Aug-20
07:00 UTC
050°
4 KTS
10,000+ meters   C
45° F
C
39° F
81% 30.06" Hg
1018 hPa
VFR
Aug-20
06:30 UTC
070°
4 KTS
10,000+ meters   C
43° F
C
37° F
81% 30.03" Hg
1017 hPa
VFR
Aug-20
06:00 UTC
010°
5 KTS
10,000+ meters   C
45° F
C
37° F
76% 30.03" Hg
1017 hPa
VFR
Aug-20
05:30 UTC
040°
3 KTS
10,000+ meters   C
45° F
C
37° F
76% 30.03" Hg
1017 hPa
VFR
Aug-20
05:00 UTC
050°
5 KTS
10,000+ meters   C
46° F
C
37° F
71% 30.03" Hg
1017 hPa
VFR
Aug-20
04:30 UTC
050°
5 KTS
10,000+ meters   C
45° F
C
37° F
76% 30.03" Hg
1017 hPa
VFR
Aug-20
04:00 UTC
080°
3 KTS
10,000+ meters   C
45° F
C
39° F
81% 30.03" Hg
1017 hPa
VFR
Aug-20
03:30 UTC
030°
4 KTS
10,000+ meters   C
46° F
C
41° F
82% 30.03" Hg
1017 hPa
VFR
Aug-20
03:00 UTC
030°
3 KTS
10,000+ meters   C
46° F
C
41° F
82% 30.03" Hg
1017 hPa
VFR
Aug-20
02:30 UTC
050°
6 KTS
10,000+ meters   C
46° F
C
39° F
76% 30.03" Hg
1017 hPa
VFR
Aug-20
02:00 UTC
060°
5 KTS
10,000+ meters   C
45° F
C
41° F
87% 30" Hg
1016 hPa
VFR
Aug-20
01:30 UTC
080°
3 KTS
10,000+ meters   C
46° F
C
45° F
93% 30" Hg
1016 hPa
VFR
Aug-20
01:00 UTC
030°
8 KTS
10,000+ meters   C
46° F
C
43° F
87% 30" Hg
1016 hPa
VFR
Aug-20
00:30 UTC
030°
9 KTS
10,000+ meters   C
46° F
C
41° F
82% 30" Hg
1016 hPa
VFR
Aug-20
00:00 UTC
040°
10 KTS
10,000+ meters   C
48° F
C
41° F
76% 30" Hg
1016 hPa
VFR
Aug-19
23:30 UTC
040°
9 KTS
10,000+ meters   C
48° F
C
43° F
82% 30" Hg
1016 hPa
VFR
Aug-19
23:00 UTC
040°
9 KTS
10,000+ meters   C
48° F
C
43° F
82% 30" Hg
1016 hPa
VFR
Aug-19
22:30 UTC
040°
9 KTS
10,000+ meters   10° C
50° F
C
43° F
76% 30" Hg
1016 hPa
VFR
Aug-19
22:00 UTC
040°
8 KTS
10,000+ meters   10° C
50° F
C
45° F
82% 30" Hg
1016 hPa
VFR
Aug-19
21:30 UTC
030°
8 KTS
10,000+ meters   10° C
50° F
C
45° F
82% 30" Hg
1016 hPa
VFR
Aug-19
21:00 UTC
030°
8 KTS
10,000+ meters   11° C
52° F
C
45° F
77% 30" Hg
1016 hPa
VFR
Aug-19
20:30 UTC
030°
7 KTS
10,000+ meters   11° C
52° F
C
45° F
77% 30" Hg
1016 hPa
VFR
Aug-19
20:00 UTC
040°
8 KTS
10,000+ meters Broken
16,000' AGL
13° C
55° F
C
43° F
63% 29.97" Hg
1015 hPa
VFR
Aug-19
19:30 UTC
010°
6 KTS
10,000+ meters Broken
16,000' AGL
13° C
55° F
C
46° F
72% 29.97" Hg
1015 hPa
VFR
Aug-19
19:00 UTC
030°
6 KTS
10,000+ meters Broken
16,000' AGL
14° C
57° F
C
43° F
59% 29.97" Hg
1015 hPa
VFR
Aug-19
18:30 UTC
040°
8 KTS
10,000+ meters Broken
16,000' AGL
13° C
55° F
C
43° F
63% 29.97" Hg
1015 hPa
VFR
Aug-19
18:00 UTC
050°
9 KTS
10,000+ meters Broken
16,000' AGL
14° C
57° F
C
43° F
59% 29.97" Hg
1015 hPa
VFR
Aug-19
17:30 UTC
040°
9 KTS
10,000+ meters Broken
16,000' AGL
13° C
55° F
C
43° F
63% 29.97" Hg
1015 hPa
VFR
Aug-19
17:00 UTC
040°
6 KTS
10,000+ meters Broken
16,000' AGL
13° C
55° F
C
41° F
59% 29.97" Hg
1015 hPa
VFR
Aug-19
16:30 UTC
040°
6 KTS
10,000+ meters Broken
16,000' AGL
13° C
55° F
C
41° F
59% 29.97" Hg
1015 hPa
VFR
Aug-19
16:00 UTC
040°
5 KTS
10,000+ meters Broken
16,000' AGL
13° C
55° F
C
41° F
59% 29.97" Hg
1015 hPa
VFR
Aug-19
15:30 UTC
040°
5 KTS
10,000+ meters   13° C
55° F
C
43° F
63% 29.97" Hg
1015 hPa
VFR
Aug-19
15:00 UTC
030°
7 KTS
10,000+ meters   13° C
55° F
C
41° F
59% 29.97" Hg
1015 hPa
VFR
Aug-19
14:30 UTC
030°
7 KTS
10,000+ meters   12° C
54° F
C
43° F
67% 29.97" Hg
1015 hPa
VFR
Aug-19
14:00 UTC
010°
8 KTS
10,000+ meters   13° C
55° F
C
43° F
63% 29.97" Hg
1015 hPa
VFR
Aug-19
13:30 UTC
020°
7 KTS
10,000+ meters   12° C
54° F
C
43° F
67% 29.97" Hg
1015 hPa
VFR
Aug-19
13:00 UTC
020°
9 KTS
10,000+ meters   12° C
54° F
C
43° F
67% 29.97" Hg
1015 hPa
VFR
Aug-19
12:30 UTC
030°
9 KTS
10,000+ meters   11° C
52° F
C
43° F
72% 29.97" Hg
1015 hPa
VFR
Aug-19
12:00 UTC
030°
10 KTS
10,000+ meters   12° C
54° F
C
43° F
67% 29.97" Hg
1015 hPa
VFR
Aug-19
11:30 UTC
020°
10 KTS
10,000+ meters   12° C
54° F
C
43° F
67% 29.94" Hg
1014 hPa
VFR
Aug-19
11:00 UTC
040°
7 KTS
10,000+ meters   11° C
52° F
C
41° F
67% 29.94" Hg
1014 hPa
VFR
Aug-19
10:30 UTC
020°
9 KTS
10,000+ meters   11° C
52° F
C
43° F
72% 29.94" Hg
1014 hPa
VFR